Weather History for Fort Lewis, WA

Change the Weather History Date:

Wednesday, March 20, 2013

  Actual Average Record
Temperature  
Mean Temperature 44 °F -  
Max Temperature 51 °F 53 °F 68 °F (1999)
Min Temperature 36 °F 36 °F 26 °F (2006)
Degree Days  
Heating Degree Days 21    
Moisture  
Dew Point 43 °F    
Average Humidity 90    
Maximum Humidity 100    
Minimum Humidity 71    
Precipitation  
Precipitation 0.54 in - - ()
Sea Level Pressure  
Sea Level Pressure 29.65 in    
Wind  
Wind Speed 9 mph (South)    
Max Wind Speed 24 mph    
Max Gust Speed 40 mph    
Visibility 9 miles    
Events Rain    
Averages and records for this station are not official NWS values.
T = Trace of Precipitation, MM = Missing Value Source: NWS Daily Summary

Daily Weather History Graph

Daily Weather History Graph

Search for Another Location

Airport:

Trip Planner

Search our weather history database for the weather conditions in past years. The results will help you decide how hot, cold, wet, or windy it might be!

Date:

Astronomy

Mar. 20, 2013 Rise Set
Actual Time 7:12 AM PDT 7:23 PM PDT
Civil Twilight 6:42 AM PDT 7:53 PM PDT
Nautical Twilight 6:06 AM PDT 8:29 PM PDT
Astronomical Twilight 5:29 AM PDT 9:06 PM PDT
Moon 12:42 PM PDT (3/20) 3:17 AM PDT (3/20)
Length of Visible Light 13h 11m
Length of Day
12h 10m
First Quarter, 60% of the Moon is Illuminated
Mar 20
First Quarter
Mar 27
Full
Apr 2
Last Quarter
Apr 10
New
Apr 18
First Quarter

Hourly Weather History & Observations

Time (PDT) Temp. Windchill Dew Point Humidity Pressure Visibility Wind Dir Wind Speed Gust Speed Precip Events Conditions
12:08 AM 44.6 °F - 42.8 °F 93% 29.59 in 4.0 mi SSW 2.3 mph - N/A Rain Light Rain
12:13 AM 44.6 °F - 42.8 °F 93% 29.59 in 4.0 mi Calm Calm - N/A Rain Light Rain
12:28 AM 44.6 °F - 42.8 °F 93% 29.57 in 5.0 mi East 2.3 mph - N/A Rain Light Rain
12:58 AM 43.7 °F 41.1 °F 43.3 °F 99% 29.59 in 8.0 mi SE 4.6 mph - 0.08 in Rain Light Rain
1:25 AM 46.4 °F 42.9 °F 46.4 °F 100% 29.55 in 10.0 mi ESE 6.9 mph - N/A   Mostly Cloudy
1:41 AM 46.4 °F 42.9 °F 46.4 °F 100% 29.53 in 10.0 mi ESE 6.9 mph - N/A   Light Drizzle
1:55 AM 48.2 °F - 46.4 °F 93% 29.53 in 10.0 mi ESE 9.2 mph - N/A   Overcast
1:58 AM 48.2 °F - 46.4 °F 93% 29.55 in 10.0 mi ESE 10.4 mph - 0.02 in   Overcast
2:01 AM 48.2 °F - 46.4 °F 93% 29.53 in 10.0 mi ESE 8.1 mph - N/A   Light Drizzle
2:38 AM 46.4 °F 43.5 °F 46.4 °F 100% 29.52 in 10.0 mi SE 5.8 mph - N/A   Overcast
2:58 AM 46.9 °F - 46.0 °F 97% 29.53 in 10.0 mi SE 5.8 mph - 0.02 in   Overcast
3:33 AM 46.4 °F 45.2 °F 46.4 °F 100% 29.49 in 10.0 mi SSE 3.5 mph - N/A   Light Drizzle
3:38 AM 46.4 °F 45.2 °F 46.4 °F 100% 29.49 in 10.0 mi SE 3.5 mph - N/A   Light Drizzle
3:50 AM 46.4 °F 44.3 °F 46.4 °F 100% 29.48 in 10.0 mi SE 4.6 mph - N/A   Overcast
3:51 AM 46.4 °F 44.3 °F 46.4 °F 100% 29.48 in 10.0 mi SE 4.6 mph - N/A   Light Drizzle
3:52 AM 46.4 °F 44.3 °F 46.4 °F 100% 29.48 in 10.0 mi SE 4.6 mph - N/A   Overcast
3:54 AM 46.4 °F 44.3 °F 46.4 °F 100% 29.48 in 10.0 mi ESE 4.6 mph - N/A   Light Drizzle
3:58 AM 47.3 °F - 46.9 °F 99% 29.50 in 10.0 mi SE 4.6 mph - 0.02 in   Light Drizzle
4:08 AM 48.2 °F - 48.2 °F 100% 29.47 in 10.0 mi SSE 3.5 mph - N/A   Light Drizzle
4:13 AM 48.2 °F - 48.2 °F 100% 29.47 in 9.0 mi SSE 3.5 mph - N/A   Light Drizzle
4:23 AM 46.4 °F 45.2 °F 46.4 °F 100% 29.46 in 10.0 mi South 3.5 mph - N/A   Light Drizzle
4:48 AM 46.4 °F 45.2 °F 46.4 °F 100% 29.44 in 10.0 mi SSE 3.5 mph - N/A   Light Drizzle
4:58 AM 46.4 °F - 46.4 °F 100% 29.46 in 9.0 mi SE 2.3 mph - 0.04 in   Light Drizzle
5:17 AM 48.2 °F - 46.4 °F 93% 29.45 in 10.0 mi SE 5.8 mph - N/A   Light Drizzle
5:28 AM 48.2 °F - 48.2 °F 100% 29.43 in 8.0 mi SE 6.9 mph - N/A Rain Light Rain
5:58 AM 48.9 °F - 48.6 °F 99% 29.43 in 10.0 mi SE 9.2 mph - 0.08 in   Light Drizzle
6:25 AM 50.0 °F - 50.0 °F 100% 29.40 in 10.0 mi ESE 9.2 mph - N/A   Mostly Cloudy
6:50 AM 50.0 °F - 50.0 °F 100% 29.40 in 10.0 mi SE 8.1 mph - N/A   Overcast
6:54 AM 50.0 °F - 50.0 °F 100% 29.40 in 10.0 mi SE 10.4 mph - N/A   Light Drizzle
6:58 AM 49.8 °F - 49.5 °F 99% 29.42 in 10.0 mi SE 13.8 mph - 0.03 in   Light Drizzle
7:03 AM 50.0 °F - 50.0 °F 100% 29.40 in 10.0 mi SSE 18.4 mph 26.5 mph N/A Rain Light Rain
7:40 AM 51.8 °F - 50.0 °F 94% 29.41 in 10.0 mi SSE 16.1 mph 27.6 mph N/A   Overcast
7:55 AM 51.8 °F - 50.0 °F 94% 29.41 in 10.0 mi South 15.0 mph 24.2 mph N/A Rain Light Rain
7:58 AM 51.8 °F - 50.0 °F 94% 29.43 in 10.0 mi South 15.0 mph 24.2 mph 0.09 in Rain Light Rain
8:14 AM 51.8 °F - 50.0 °F 94% 29.42 in 9.0 mi South 13.8 mph 20.7 mph N/A   Overcast
8:15 AM 51.8 °F - 50.0 °F 94% 29.42 in 9.0 mi South 12.7 mph 20.7 mph N/A Rain Light Rain
8:40 AM 51.8 °F - 48.2 °F 88% 29.42 in 10.0 mi South 20.7 mph 27.6 mph N/A   Overcast
8:56 AM 50.0 °F - 48.2 °F 94% 29.45 in 9.0 mi South 20.7 mph 28.8 mph N/A Rain Light Rain
9:01 AM 50.0 °F - 46.4 °F 87% 29.45 in 7.0 mi SSW 19.6 mph 35.7 mph N/A Rain Light Rain
9:17 AM 50.0 °F - 46.4 °F 87% 29.47 in 10.0 mi SSW 16.1 mph 27.6 mph N/A   Overcast
9:27 AM 48.2 °F - 46.4 °F 93% 29.48 in 10.0 mi South 19.6 mph 25.3 mph N/A   Overcast
9:43 AM 48.2 °F - 44.6 °F 87% 29.50 in 10.0 mi SSW 15.0 mph 32.2 mph N/A   Mostly Cloudy
9:56 AM 48.2 °F - 44.6 °F 87% 29.52 in 10.0 mi South 13.8 mph 21.9 mph N/A   Scattered Clouds
10:39 AM 48.2 °F - 42.8 °F 82% 29.56 in 10.0 mi South 16.1 mph 32.2 mph N/A   Mostly Cloudy
10:50 AM 48.2 °F - 41.0 °F 76% 29.56 in 10.0 mi SSW 19.6 mph 31.1 mph N/A   Mostly Cloudy
10:56 AM 48.2 °F - 42.8 °F 82% 29.57 in 10.0 mi South 20.7 mph 31.1 mph N/A   Mostly Cloudy
11:58 AM 50.0 °F - 40.8 °F 71% 29.60 in 10.0 mi South 19.6 mph 35.7 mph N/A   Mostly Cloudy
12:20 PM 50.0 °F - 41.0 °F 71% 29.61 in 10.0 mi SSW 15.0 mph 32.2 mph N/A   Light Drizzle
12:26 PM 50.0 °F - 41.0 °F 71% 29.62 in 10.0 mi SW 24.2 mph 34.5 mph N/A   Light Drizzle
12:30 PM 48.2 °F - 41.0 °F 76% 29.63 in 7.0 mi SSW 21.9 mph 40.3 mph N/A   Mostly Cloudy
12:36 PM 46.4 °F 40.7 °F 41.0 °F 81% 29.64 in 4.0 mi SSW 12.7 mph 40.3 mph N/A Rain Light Rain
12:46 PM 46.4 °F 40.4 °F 42.8 °F 87% 29.65 in 10.0 mi South 13.8 mph 28.8 mph N/A   Overcast
12:48 PM 46.4 °F 40.1 °F 42.8 °F 87% 29.64 in 10.0 mi South 15.0 mph 28.8 mph N/A Rain Light Rain
12:58 PM 46.8 °F - 43.3 °F 88% 29.67 in 10.0 mi South 17.3 mph 23.0 mph 0.02 in Rain Light Rain
1:00 PM 46.4 °F 40.4 °F 42.8 °F 87% 29.65 in 10.0 mi South 13.8 mph 23.0 mph N/A   Mostly Cloudy
1:01 PM 46.4 °F 40.1 °F 42.8 °F 87% 29.65 in 10.0 mi South 15.0 mph 23.0 mph N/A Rain Light Rain
1:13 PM 46.4 °F 40.4 °F 42.8 °F 87% 29.66 in 7.0 mi South 13.8 mph 21.9 mph N/A   Overcast
1:15 PM 46.4 °F 40.1 °F 42.8 °F 87% 29.66 in 7.0 mi South 15.0 mph 21.9 mph N/A Rain Light Rain
1:25 PM 46.4 °F 40.7 °F 42.8 °F 87% 29.67 in 10.0 mi South 12.7 mph 29.9 mph N/A   Overcast
1:34 PM 46.4 °F 40.1 °F 42.8 °F 87% 29.67 in 10.0 mi South 15.0 mph 20.7 mph N/A Rain Light Rain
1:39 PM 46.4 °F 39.2 °F 42.8 °F 87% 29.68 in 8.0 mi South 18.4 mph 24.2 mph N/A Rain Light Rain
1:49 PM 46.4 °F 40.4 °F 42.8 °F 87% 29.68 in 7.0 mi SW 13.8 mph 24.2 mph N/A   Light Drizzle
1:54 PM 46.4 °F 40.7 °F 42.8 °F 87% 29.69 in 8.0 mi SSW 12.7 mph 19.6 mph N/A Rain Light Rain
1:58 PM 45.7 °F 38.8 °F 42.8 °F 90% 29.71 in 10.0 mi South 16.1 mph 21.9 mph 0.04 in Rain Light Rain
2:08 PM 44.6 °F 36.9 °F 42.8 °F 93% 29.69 in 8.0 mi South 18.4 mph 27.6 mph N/A Rain Light Rain
2:34 PM 46.4 °F 40.4 °F 42.8 °F 87% 29.71 in 10.0 mi SSW 13.8 mph 19.6 mph N/A   Mostly Cloudy
2:54 PM 46.4 °F 38.7 °F 41.0 °F 81% 29.72 in 10.0 mi SW 20.7 mph 24.2 mph N/A Rain Light Rain
2:58 PM 45.9 °F 38.5 °F 41.9 °F 86% 29.73 in 9.0 mi SSW 18.4 mph 31.1 mph 0.05 in Rain Light Rain
3:37 PM 44.6 °F 38.1 °F 41.0 °F 87% 29.75 in 10.0 mi SSW 13.8 mph 23.0 mph N/A   Scattered Clouds
3:42 PM 46.4 °F 39.8 °F 41.0 °F 81% 29.75 in 10.0 mi SW 16.1 mph 23.0 mph N/A   Mostly Cloudy
3:56 PM 44.6 °F 38.1 °F 41.0 °F 87% 29.76 in 10.0 mi SSW 13.8 mph 23.0 mph N/A   Mostly Cloudy
4:08 PM 44.6 °F 37.4 °F 39.2 °F 81% 29.77 in 10.0 mi SSW 16.1 mph 25.3 mph N/A Rain Light Rain
4:13 PM 44.6 °F 37.8 °F 39.2 °F 81% 29.78 in 9.0 mi SW 15.0 mph 25.3 mph N/A Rain Light Rain
4:21 PM 44.6 °F 36.9 °F 41.0 °F 87% 29.78 in 9.0 mi SW 18.4 mph 24.2 mph N/A Rain Light Rain
4:30 PM 44.6 °F 37.4 °F 39.2 °F 81% 29.79 in 7.0 mi SSW 16.1 mph 26.5 mph N/A   Mostly Cloudy
4:52 PM 44.6 °F 37.4 °F 41.0 °F 87% 29.79 in 10.0 mi SSW 16.1 mph 21.9 mph N/A   Overcast
4:56 PM 44.6 °F 37.4 °F 41.0 °F 87% 29.79 in 10.0 mi SSW 16.1 mph 20.7 mph N/A   Overcast
5:26 PM 44.6 °F 37.2 °F 41.0 °F 87% 29.79 in 10.0 mi South 17.3 mph 23.0 mph N/A   Scattered Clouds
5:32 PM 44.6 °F 39.2 °F 41.0 °F 87% 29.80 in 10.0 mi South 10.4 mph 23.0 mph N/A   Mostly Cloudy
5:58 PM 43.3 °F 36.8 °F 39.2 °F 85% 29.85 in 10.0 mi SSW 12.7 mph 20.7 mph N/A   Overcast
6:53 PM 42.8 °F 35.4 °F 35.6 °F 76% 29.87 in 10.0 mi SW 15.0 mph 25.3 mph N/A   Overcast
6:58 PM 41.7 °F 32.9 °F 36.0 °F 80% 29.90 in 8.0 mi SW 19.6 mph 27.6 mph 0.00 in   Overcast
7:06 PM 41.0 °F 33.5 °F 35.6 °F 81% 29.88 in 10.0 mi SW 13.8 mph 27.6 mph N/A   Overcast
7:11 PM 41.0 °F 33.5 °F 33.8 °F 76% 29.89 in 10.0 mi SSW 13.8 mph 23.0 mph N/A   Overcast
7:58 PM 39.7 °F 33.2 °F 35.1 °F 83% 29.94 in 10.0 mi South 10.4 mph - 0.00 in   Scattered Clouds
8:58 PM 38.8 °F 32.6 °F 34.9 °F 86% 29.98 in 10.0 mi South 9.2 mph - N/A   Mostly Cloudy
9:33 PM 39.2 °F 33.6 °F 35.6 °F 87% 30.00 in 10.0 mi South 8.1 mph - N/A   Light Drizzle
9:43 PM 39.2 °F 33.6 °F 35.6 °F 87% 30.01 in 10.0 mi South 8.1 mph - N/A Rain Light Rain
9:53 PM 39.2 °F 33.6 °F 35.6 °F 87% 30.03 in 6.0 mi WSW 8.1 mph - N/A   Overcast
9:58 PM 38.7 °F 33.6 °F 35.4 °F 88% 30.03 in 5.0 mi WSW 6.9 mph - 0.02 in Rain Light Rain
10:13 PM 37.4 °F 32.8 °F 35.6 °F 93% 30.04 in 6.0 mi South 5.8 mph - N/A   Overcast
10:18 PM 37.4 °F 31.4 °F 35.6 °F 93% 30.03 in 9.0 mi South 8.1 mph - N/A   Light Drizzle
10:19 PM 37.4 °F 31.4 °F 35.6 °F 93% 30.03 in 10.0 mi South 8.1 mph - N/A   Overcast
10:24 PM 37.4 °F 32.8 °F 35.6 °F 93% 30.04 in 10.0 mi SSE 5.8 mph - N/A   Mostly Cloudy
10:29 PM 37.4 °F 30.8 °F 33.8 °F 87% 30.04 in 10.0 mi South 9.2 mph - N/A   Mostly Cloudy
10:58 PM 37.0 °F 30.4 °F 35.1 °F 93% 30.05 in 10.0 mi South 9.2 mph - 0.03 in   Mostly Cloudy
11:58 PM 36.7 °F 28.9 °F 34.0 °F 90% 30.08 in 10.0 mi South 11.5 mph - N/A   Mostly Cloudy